Powrót do katalogu

SL-16 DEB

AktywnyLEO
NORAD 22616·DEBRIS·🇷🇺 Russia

Wystrzelony Mar 26, 1993 z Baikonur Cosmodrome

Loading…

Następne Przeloty (najbliższe 24 godziny)

TLE

ŚwieżeSource: Space-Track

Epoka: Sep 13, 2026, 23:25 UTC

1 22616U 93016AA  26256.97599163  .00000033  00000-0  70839-4 0  9993
2 22616  70.9938  83.9489 0185712  51.2428  99.0835 13.74044829677288

Śledź SL-16 DEB w czasie rzeczywistym z AllMySat

Download on the App Store